Weather History for KEGE - June, 2013

Change the Weather History Date:

Sunday, June 16, 2013

  Actual Average Record
Temperature  
Mean Temperature 60 °F -  
Max Temperature 75 °F 79 °F 93 °F (2007)
Min Temperature 46 °F 40 °F 27 °F (1981)
Degree Days  
Heating Degree Days 4    
Growing Degree Days 10 (Base 50)    
Moisture  
Dew Point 36 °F    
Average Humidity 44    
Maximum Humidity 62    
Minimum Humidity 24    
Precipitation  
Precipitation 0.00 in - - ()
Sea Level Pressure  
Sea Level Pressure 30.21 in    
Wind  
Wind Speed 6 mph (ENE)    
Max Wind Speed 125 mph    
Max Gust Speed 21 mph    
Visibility 10 miles    
Events      
Averages and records for this station are not official NWS values.
T = Trace of Precipitation, MM = Missing Value Source: NWS Daily Summary

Daily Weather History Graph

Daily Weather History Graph

Search for Another Location

Airport or City:

Trip Planner

Search our weather history database for the weather conditions in past years. The results will help you decide how hot, cold, wet, or windy it might be!

Date:

Astronomy

Jun. 16, 2013 Rise Set
Actual Time 5:39 AM MDT 8:37 PM MDT
Civil Twilight 5:06 AM MDT 9:10 PM MDT
Nautical Twilight 4:25 AM MDT 9:51 PM MDT
Astronomical Twilight 3:37 AM MDT 10:39 PM MDT
Moon 1:17 PM MDT (6/16) 12:45 AM MDT (6/16)
Length of Visible Light 16h 03m
Length of Day
14h 58m
Waxing Crescent, 50% of the Moon is Illuminated
Jun 16
Waxing Crescent
Jun 23
Full
Jun 29
Last Quarter
Jul 8
New
Jul 15
First Quarter

Hourly Weather History & Observations

Time (MDT) Temp. Windchill Dew Point Humidity Pressure Visibility Wind Dir Wind Speed Gust Speed Precip Events Conditions
12:15 AM 57.2 °F - 32.0 °F 38% 30.19 in 10.0 mi East 4.6 mph - N/A   Clear
12:35 AM 55.4 °F - 33.8 °F 44% 30.19 in 10.0 mi ESE 8.1 mph - N/A   Clear
12:55 AM 55.4 °F - 32.0 °F 41% 30.19 in 10.0 mi East 6.9 mph - N/A   Clear
1:15 AM 53.6 °F - 33.8 °F 47% 30.19 in 10.0 mi ESE 6.9 mph - N/A   Clear
1:35 AM 53.6 °F - 33.8 °F 47% 30.19 in 10.0 mi ENE 5.8 mph - N/A   Clear
1:55 AM 53.6 °F - 33.8 °F 47% 30.20 in 10.0 mi ESE 3.5 mph - N/A   Clear
2:15 AM 53.6 °F - 33.8 °F 47% 30.20 in 10.0 mi East 3.5 mph - N/A   Clear
2:35 AM 53.6 °F - 32.0 °F 44% 30.20 in 10.0 mi Calm Calm - N/A   Clear
2:55 AM 53.6 °F - 32.0 °F 44% 30.20 in 10.0 mi Calm Calm - N/A   Clear
3:15 AM 50.0 °F - 33.8 °F 54% 30.20 in 10.0 mi ESE 3.5 mph - N/A   Clear
3:55 AM 48.2 °F - 33.8 °F 58% 30.20 in 10.0 mi SE 3.5 mph - N/A   Clear
4:15 AM 46.4 °F 45.2 °F 33.8 °F 62% 30.21 in 10.0 mi SE 3.5 mph - N/A   Clear
4:35 AM 46.4 °F - 32.0 °F 57% 30.21 in 10.0 mi Calm Calm - N/A   Clear
4:55 AM 46.4 °F - 33.8 °F 62% 30.22 in 10.0 mi Calm Calm - N/A   Clear
5:15 AM 46.4 °F - 33.8 °F 62% 30.22 in 10.0 mi Calm Calm - N/A   Clear
5:35 AM 46.4 °F - 32.0 °F 57% 30.22 in 10.0 mi Calm Calm - N/A   Clear
5:55 AM 46.4 °F - 33.8 °F 62% 30.23 in 10.0 mi Calm Calm - N/A   Clear
6:15 AM 46.4 °F - 33.8 °F 62% 30.23 in 10.0 mi Calm Calm - N/A   Clear
6:35 AM 46.4 °F - 33.8 °F 62% 30.23 in 10.0 mi Calm Calm - N/A   Clear
6:50 AM 46.4 °F - 33.8 °F 62% 30.23 in 10.0 mi Calm Calm - N/A   Partly Cloudy
7:50 AM 51.8 °F - 35.6 °F 54% 30.25 in 10.0 mi Calm Calm - N/A   Partly Cloudy
8:50 AM 60.8 °F - 35.6 °F 39% 30.24 in 10.0 mi Calm Calm - N/A   Scattered Clouds
9:50 AM 62.6 °F - 33.8 °F 34% 30.24 in 10.0 mi Calm Calm - N/A   Mostly Cloudy
10:50 AM 66.2 °F - 33.8 °F 30% 30.26 in 10.0 mi Calm Calm - N/A   Mostly Cloudy
11:59 AM 71.6 °F - 35.6 °F 27% 30.27 in 10.0 mi NW 12.7 mph 17.3 mph N/A   Mostly Cloudy
12:50 PM 68.0 °F - 37.4 °F 33% 30.27 in 10.0 mi WNW 5.8 mph - N/A   Mostly Cloudy
1:50 PM 69.8 °F - 37.4 °F 31% 30.24 in 10.0 mi ESE 9.2 mph - N/A   Mostly Cloudy
2:50 PM 71.6 °F - 35.6 °F 27% 30.22 in 10.0 mi Variable 6.9 mph - N/A   Scattered Clouds
3:50 PM 75.2 °F - 35.6 °F 24% 30.18 in 10.0 mi NNW 9.2 mph - N/A   Scattered Clouds
4:50 PM 69.8 °F - 41.0 °F 35% 30.20 in 10.0 mi NNW 9.2 mph 19.6 mph N/A   Scattered Clouds
5:50 PM 71.6 °F - 37.4 °F 29% 30.19 in 10.0 mi Calm Calm - N/A   Scattered Clouds
6:51 PM 73.4 °F - 39.2 °F 29% 30.18 in 10.0 mi ENE 125.4 mph - N/A   Scattered Clouds
7:15 PM 71.6 °F - 39.2 °F 31% 30.18 in 10.0 mi ENE 15.0 mph 19.6 mph N/A   Clear
7:35 PM 69.8 °F - 39.2 °F 33% 30.19 in 10.0 mi ENE 9.2 mph - N/A   Clear
7:55 PM 68.0 °F - 39.2 °F 35% 30.20 in 10.0 mi ENE 10.4 mph - N/A   Clear
8:15 PM 66.2 °F - 37.4 °F 35% 30.20 in 10.0 mi ENE 9.2 mph - N/A   Clear
8:35 PM 66.2 °F - 39.2 °F 37% 30.19 in 10.0 mi ENE 6.9 mph - N/A   Clear
8:55 PM 64.4 °F - 39.2 °F 40% 30.20 in 10.0 mi NE 4.6 mph - N/A   Clear
9:15 PM 64.4 °F - 37.4 °F 37% 30.22 in 10.0 mi Calm Calm - N/A   Clear
9:35 PM 62.6 °F - 39.2 °F 42% 30.19 in 10.0 mi NE 10.4 mph - N/A   Clear
9:55 PM 62.6 °F - 39.2 °F 42% 30.22 in 10.0 mi Calm Calm - N/A   Clear
10:15 PM 62.6 °F - 41.0 °F 45% 30.24 in 10.0 mi North 4.6 mph 20.7 mph N/A   Clear
10:35 PM 62.6 °F - 41.0 °F 45% 30.23 in 10.0 mi SSE 9.2 mph - N/A   Clear
10:55 PM 60.8 °F - 39.2 °F 45% 30.23 in 10.0 mi Calm Calm - N/A   Clear
11:15 PM 59.0 °F - 39.2 °F 48% 30.23 in 10.0 mi NNE 3.5 mph - N/A   Partly Cloudy
11:35 PM 60.8 °F - 39.2 °F 45% 30.23 in 10.0 mi NW 3.5 mph - N/A   Partly Cloudy
11:55 PM 60.8 °F - 39.2 °F 45% 30.22 in 10.0 mi ESE 8.1 mph - N/A   Clear